This demonstration page uses our WeatherBlox Daily Observations layout. Learn more.

Left ArrowRight Arrow

Hourly Observations for July 18, 2022

Temp ( °F °C ) Dew Point ( °F °C ) Humidity (%) Winds ( mph kmh ) Pressure ( in mb ) Visibility ( mi km ) Precip ( " mm )
12:53 am 00:53 Clear 59 15 49 9.4 69 69 SW 3 6 29.93 1014 10 16 0.00 0.00
1:53 am 01:53 Clear 60 15.6 49 9.4 67 67 Calm 29.96 1014 10 16 0.00 0.00
2:53 am 02:53 Clear 60 15.6 49 9.4 67 67 Calm 29.98 1015 10 16 0.00 0.00
3:53 am 03:53 Clear 59 15 49 9.4 69 69 Calm 29.99 1016 10 16 0.00 0.00
4:53 am 04:53 Clear 53 11.7 47 8.3 80 80 ESE 5 7 30.00 1016 10 16 0.00 0.00
5:53 am 05:53 Clear 55 12.8 47 8.3 74 74 Calm 30.01 1016 10 16 0.00 0.00
6:53 am 06:53 Sunny 55 12.8 49 9.4 80 80 Calm 30.03 1017 10 16 0.00 0.00
7:53 am 07:53 Sunny 64 17.8 50 10 60 60 Calm 30.02 1017 10 16 0.00 0.00
8:53 am 08:53 Sunny 74 23.3 50 10 43 43 ENE 6 9 30.01 1016 10 16 0.00 0.00
9:53 am 09:53 Sunny 81 27.2 51 10.6 35 35 NE 7 11 30.00 1016 10 16 0.00 0.00
10:53 am 10:53 Sunny 86 30 49 9.4 28 28 WSW 18 30 29.98 1015 10 16 0.00 0.00
11:12 am 11:12 Sunny 85 29.4 49 9.4 29 29 SW 10 17 29.66 1004 10 16 0.00 0.00
11:53 am 11:53 Sunny 89 31.7 46 7.8 23 23 WSW 13 20 29.98 1015 10 16 0.00 0.00
12:53 pm 12:53 Sunny 90 32.2 47 8.3 23 23 W 15 24 29.98 1015 10 16 0.00 0.00
1:53 pm 13:53 Sunny 92 33.3 47 8.3 21 21 WSW 15 24 29.95 1014 10 16 0.00 0.00
2:53 pm 14:53 Mostly Sunny 93 33.9 46 7.8 20 20 SW 14 22 29.91 1013 10 16 0.00 0.00
3:53 pm 15:53 Partly Cloudy with Nearby Thunderstorms 89 31.7 45 7.2 22 22 SW 17 28 29.91 1013 10 16 0.00 0.00
4:24 pm 16:24 Sunny 88 31.1 50 10 27 27 SSW 22 35 29.54 1000 10 16 0.00 0.00
4:53 pm 16:53 Sunny 89 31.7 47 8.3 23 23 SSW 26 43 29.92 1013 10 16 0.00 0.00
5:53 pm 17:53 Sunny 87 30.6 45 7.2 23 23 SSW 25 41 29.90 1013 10 16 0.00 0.00
6:53 pm 18:53 Sunny 87 30.6 44 6.7 22 22 W 15 24 29.91 1013 10 16 0.00 0.00
7:07 pm 19:07 Sunny 84 28.9 46 7.8 27 27 NNW 13 20 29.58 1002 10 16 0.00 0.00
7:53 pm 19:53 Sunny 82 27.8 46 7.8 28 28 Calm 29.93 1013 10 16 0.00 0.00
8:53 pm 20:53 Clear 73 22.8 47 8.3 40 40 VRB 3 6 29.92 1013 10 16 0.00 0.00
9:53 pm 21:53 Cloudy 75 23.9 51 10.6 43 43 SSW 12 19 29.94 1014 10 16 0.00 0.00
10:53 pm 22:53 Mostly Clear 72 22.2 50 10 46 46 WNW 3 6 29.93 1013 10 16 0.00 0.00
11:53 pm 23:53 Clear 66 18.9 51 10.6 59 59 Calm 29.94 1014 10 16 0.00 0.00

Powered by AerisWeather